Kahului, HI

1:27 AM HST on September 25, 2016 (GMT -1000)
Kahului

Weather History for PHOG - September, 2011

Change the Weather History Date:

Saturday, September 3, 2011

  Actual Average Record
Temperature  
Mean Temperature 77 °F 80 °F  
Max Temperature 83 °F 88 °F 94 °F (2005)
Min Temperature 70 °F 71 °F 64 °F (2002)
Degree Days  
Heating Degree Days 0 0  
Month to date heating degree days 0 0  
Since 1 July heating degree days 0 0  
Cooling Degree Days 12 14  
Month to date cooling degree days 40 44  
Year to date cooling degree days 2677 2586  
Growing Degree Days 26 (Base 50)    
Moisture  
Dew Point 64 °F    
Average Humidity 69    
Maximum Humidity 84    
Minimum Humidity 54    
Precipitation  
Precipitation 0.04 in 0.01 in 0.18 in (1992)
Month to date precipitation 0.05 0.03  
Year to date precipitation 10.40 10.73  
Snow  
Snow 0.00 in - - ()
Month to date snowfall 0.0  
Since 1 July snowfall 0.0  
Since 1 September snowfall 0.0  
Snow Depth 0.00 in    
Sea Level Pressure  
Sea Level Pressure 30.07 in    
Wind  
Wind Speed 9 mph (NE)    
Max Wind Speed 26 mph    
Max Gust Speed 33 mph    
Visibility 10 miles    
Events Rain    
T = Trace of Precipitation, MM = Missing Value Source: NWS Daily Summary

Daily Weather History Graph

Daily Weather History Graph

Search for Another Location

Airport or City:

Trip Planner

Search our weather history database for the weather conditions in past years. The results will help you decide how hot, cold, wet, or windy it might be!

Date:

Astronomy

Sep. 03, 2011 Rise Set
Actual Time 6:09 AM HST 6:39 PM HST
Civil Twilight 5:47 AM HST 7:02 PM HST
Nautical Twilight 5:21 AM HST 7:28 PM HST
Astronomical Twilight 4:54 AM HST 7:54 PM HST
Moon 12:02 PM HST (9/3) 11:15 PM HST (9/3)
Length of Visible Light 13h 14m
Length of Day
12h 29m
Waxing Crescent, 41% of the Moon is Illuminated
Sep 3
Waxing Crescent
Sep 4
First Quarter
Sep 11
Full
Sep 20
Last Quarter
Sep 27
New

Hourly Weather History & Observations

Time (HST) Temp. Heat Index Dew Point Humidity Pressure Visibility Wind Dir Wind Speed Gust Speed Precip Events Conditions
12:54 AM 72.0 °F - 66.0 °F 81% 30.08 in 10.0 mi ENE 4.6 mph - 0.03 in   Overcast
1:54 AM 70.0 °F - 63.0 °F 78% 30.07 in 9.0 mi East 10.4 mph - 0.00 in Rain Light Rain
2:54 AM 71.1 °F - 64.0 °F 78% 30.06 in 10.0 mi NNW 5.8 mph - 0.00 in   Overcast
3:54 AM 70.0 °F - 64.9 °F 84% 30.06 in 10.0 mi NE 5.8 mph - 0.00 in Rain Light Rain
4:54 AM 71.1 °F - 64.9 °F 81% 30.07 in 10.0 mi NNE 9.2 mph 17.3 mph 0.00 in   Overcast
5:54 AM 71.1 °F - 66.0 °F 84% 30.08 in 9.0 mi NNE 5.8 mph - 0.00 in Rain Light Rain
6:54 AM 73.0 °F - 66.0 °F 79% 30.08 in 10.0 mi NNE 6.9 mph - 0.01 in   Scattered Clouds
7:54 AM 72.0 °F - 64.9 °F 78% 30.10 in 10.0 mi NE 10.4 mph - 0.00 in Rain Light Rain
8:54 AM 75.9 °F - 66.9 °F 74% 30.12 in 10.0 mi North 11.5 mph - 0.00 in   Scattered Clouds
9:54 AM 79.0 °F - 66.9 °F 66% 30.11 in 10.0 mi NNE 12.7 mph 19.6 mph N/A   Mostly Cloudy
10:54 AM 77.0 °F - 64.9 °F 66% 30.09 in 10.0 mi NNE 13.8 mph - N/A   Mostly Cloudy
11:54 AM 79.0 °F - 64.0 °F 60% 30.09 in 10.0 mi NE 13.8 mph - N/A   Mostly Cloudy
12:54 PM 80.1 °F 81.5 °F 63.0 °F 56% 30.07 in 10.0 mi ENE 9.2 mph - N/A   Mostly Cloudy
1:54 PM 73.9 °F - 68.0 °F 82% 30.05 in 10.0 mi NE 11.5 mph 21.9 mph 0.00 in   Mostly Cloudy
3:54 PM 82.0 °F 83.0 °F 62.1 °F 51% 30.02 in 10.0 mi ENE 13.8 mph 20.7 mph N/A   Scattered Clouds
4:54 PM 80.1 °F 80.9 °F 60.1 °F 50% 30.03 in 10.0 mi NE 12.7 mph - N/A   Mostly Cloudy
5:54 PM 79.0 °F - 62.1 °F 56% 30.03 in 10.0 mi NNE 12.7 mph - N/A   Scattered Clouds
6:54 PM 77.0 °F - 64.0 °F 64% 30.04 in 10.0 mi NE 13.8 mph - N/A   Mostly Cloudy
7:54 PM 73.0 °F - 63.0 °F 71% 30.06 in 10.0 mi NNE 9.2 mph - 0.00 in   Mostly Cloudy
8:54 PM 72.0 °F - 63.0 °F 73% 30.07 in 10.0 mi NE 6.9 mph - N/A   Partly Cloudy
9:54 PM 73.0 °F - 63.0 °F 71% 30.08 in 10.0 mi North 9.2 mph - N/A   Partly Cloudy
10:54 PM 73.0 °F - 64.0 °F 73% 30.07 in 10.0 mi NNE 10.4 mph - N/A   Scattered Clouds
11:54 PM 72.0 °F - 64.0 °F 76% 30.06 in 10.0 mi NNE 5.8 mph - N/A   Clear